Harrisburg, PA

2:17 PM EDT on May 25, 2017 (GMT -0400)
Capital City

Weather History for KCXY - January, 2013

Change the Weather History Date:

Thursday, January 24, 2013

  Actual Average Record
Temperature  
Mean Temperature 18 °F -  
Max Temperature 25 °F 34 °F 71 °F (1967)
Min Temperature 12 °F 20 °F -2 °F (1936)
Degree Days  
Heating Degree Days 46    
Moisture  
Dew Point 6 °F    
Average Humidity 62    
Maximum Humidity 88    
Minimum Humidity 34    
Precipitation  
Precipitation 0.00 in - - ()
Sea Level Pressure  
Sea Level Pressure 30.30 in    
Wind  
Wind Speed 5 mph (WNW)    
Max Wind Speed 16 mph    
Max Gust Speed 22 mph    
Visibility 8 miles    
Events Snow    
Averages and records for this station are not official NWS values.
T = Trace of Precipitation, MM = Missing Value Source: NWS Daily Summary

Daily Weather History Graph

Daily Weather History Graph

Search for Another Location

Airport or City:

Trip Planner

Search our weather history database for the weather conditions in past years. The results will help you decide how hot, cold, wet, or windy it might be!

Date:

Astronomy

Jan. 24, 2013 Rise Set
Actual Time 7:22 AM EST 5:16 PM EST
Civil Twilight 6:53 AM EST 5:46 PM EST
Nautical Twilight 6:20 AM EST 6:18 PM EST
Astronomical Twilight 5:48 AM EST 6:51 PM EST
Moon 3:16 PM EST (1/24) 5:18 AM EST (1/24)
Length of Visible Light 10h 52m
Length of Day
9h 53m
Waxing Gibbous, 94% of the Moon is Illuminated
Jan 24
Waxing Gibbous
Jan 26
Full
Feb 3
Last Quarter
Feb 10
New
Feb 17
First Quarter

Hourly Weather History & Observations

Time (EST) Temp. Windchill Dew Point Humidity Pressure Visibility Wind Dir Wind Speed Gust Speed Precip Events Conditions
12:56 AM 15.1 °F - 7.0 °F 70% 30.15 in 10.0 mi Calm Calm - N/A   Overcast
1:56 AM 14.0 °F - 7.0 °F 74% 30.14 in 10.0 mi Calm Calm - N/A   Overcast
2:56 AM 16.0 °F 10.4 °F 6.1 °F 65% 30.15 in 10.0 mi SSE 3.5 mph - N/A   Overcast
3:42 AM 15.8 °F - 8.6 °F 73% 30.13 in 2.5 mi Calm Calm - 0.00 in Snow Light Snow
3:56 AM 15.1 °F - 9.0 °F 77% 30.16 in 3.0 mi Calm Calm - 0.00 in Snow Light Snow
4:04 AM 15.8 °F - 8.6 °F 73% 30.14 in 2.5 mi Calm Calm - 0.00 in Snow Light Snow
4:31 AM 15.8 °F 10.2 °F 10.4 °F 79% 30.15 in 1.8 mi NW 3.5 mph - 0.00 in Snow Light Snow
4:56 AM 15.1 °F 7.7 °F 10.9 °F 84% 30.18 in 1.2 mi WNW 4.6 mph - 0.00 in Snow Light Snow
5:13 AM 15.8 °F 10.2 °F 10.4 °F 79% 30.16 in 2.0 mi NW 3.5 mph - 0.00 in Snow Light Snow
5:29 AM 15.8 °F 10.2 °F 10.4 °F 79% 30.17 in 2.5 mi West 3.5 mph - 0.00 in Snow Light Snow
5:38 AM 15.8 °F 10.2 °F 10.4 °F 79% 30.17 in 3.0 mi WNW 3.5 mph - 0.00 in Snow Light Snow
5:56 AM 14.0 °F 8.2 °F 10.9 °F 88% 30.21 in 4.0 mi WSW 3.5 mph - 0.00 in Snow Light Snow
6:39 AM 14.0 °F 6.5 °F 10.4 °F 86% 30.20 in 5.0 mi WNW 4.6 mph - 0.00 in Snow Light Snow
6:56 AM 15.1 °F 6.4 °F 10.0 °F 80% 30.23 in 9.0 mi WNW 5.8 mph - 0.00 in   Overcast
7:25 AM 14.0 °F 5.1 °F 8.6 °F 79% 30.22 in 10.0 mi West 5.8 mph - N/A   Overcast
7:56 AM 12.9 °F 5.2 °F 9.0 °F 84% 30.26 in 10.0 mi West 4.6 mph - N/A   Mostly Cloudy
8:56 AM 16.0 °F 6.3 °F 9.0 °F 74% 30.29 in 10.0 mi WNW 6.9 mph - N/A   Mostly Cloudy
9:56 AM 18.0 °F 5.4 °F 9.0 °F 68% 30.32 in 10.0 mi NW 11.5 mph - N/A   Mostly Cloudy
10:31 AM 19.4 °F 7.9 °F 10.4 °F 68% 30.32 in 10.0 mi NW 10.4 mph - N/A   Overcast
10:56 AM 19.0 °F 6.1 °F 7.0 °F 59% 30.35 in 10.0 mi NW 12.7 mph - N/A   Mostly Cloudy
11:56 AM 21.0 °F 9.3 °F 5.0 °F 50% 30.37 in 10.0 mi NW 11.5 mph - N/A   Scattered Clouds
12:56 PM 23.0 °F 10.1 °F 5.0 °F 46% 30.37 in 10.0 mi NNW 15.0 mph 18.4 mph N/A   Partly Cloudy
1:56 PM 24.1 °F 12.5 °F -0.0 °F 35% 30.37 in 10.0 mi NNW 12.7 mph 18.4 mph N/A   Partly Cloudy
2:56 PM 25.0 °F 13.1 °F -0.0 °F 34% 30.38 in 10.0 mi NNW 13.8 mph 18.4 mph N/A   Mostly Cloudy
3:56 PM 25.0 °F 13.1 °F -0.0 °F 34% 30.41 in 10.0 mi NNW 13.8 mph 20.7 mph N/A   Mostly Cloudy
4:56 PM 25.0 °F 12.2 °F 1.0 °F 36% 30.43 in 10.0 mi NW 16.1 mph 21.9 mph N/A   Mostly Cloudy
5:56 PM 23.0 °F 11.7 °F -0.0 °F 37% 30.46 in 10.0 mi WNW 11.5 mph - N/A   Clear
6:56 PM 21.0 °F 12.4 °F 1.0 °F 42% 30.48 in 10.0 mi West 6.9 mph - N/A   Clear
7:56 PM 19.9 °F 11.1 °F 1.0 °F 44% 30.49 in 10.0 mi West 6.9 mph - N/A   Clear
8:56 PM 19.9 °F 11.1 °F -0.0 °F 42% 30.50 in 10.0 mi West 6.9 mph - N/A   Clear
9:56 PM 19.9 °F 7.9 °F -0.0 °F 42% 30.50 in 10.0 mi NW 11.5 mph - N/A   Clear
10:56 PM 19.0 °F 7.5 °F -2.0 °F 40% 30.51 in 10.0 mi WNW 10.4 mph - N/A   Clear
11:56 PM 18.0 °F 5.4 °F -0.9 °F 44% 30.50 in 10.0 mi NW 11.5 mph - N/A   Clear